www.pogodaiklimat.ru

Погода и климат >> Архив погоды >> Норвегия >> Маяк Torungen


ПОГОДА на Маяке Torungen

  • Прогноз погоды на Маяке Torungen
  • Монитор погоды на Маяке Torungen

АРХИВ ПОГОДЫ на Маяке Torungen

Время (UTC), дата Ветер
(напр.,м/с)
 
Видим.   Явления Облачность Т
(С)
Тd
(С)
f
(%)
Тe
(С)
Тes
(С)
Комфортность P
(гПа)
Po
(гПа)
Тmin
(С)
Tmax
(С)
R
(мм)
R24
(мм)
S
(см)
16 15.03 -5
{5}
н/о н/о +2.8 984.0 982.6
17 15.03 С 5-6
{6}
н/о н/о +2.7 -1 -1 984.5 983.0
18 15.03 С 4-4
{13}
н/о н/о +2.6 -1 -1 985.4 983.9 +0.9 +3.8 5
19 15.03 СЗ 3-4
{4}
н/о н/о +2.4 0 0 986.2 984.7
20 15.03 СЗ 3-4
{4}
н/о н/о +2.0 -1 -1 987.0 985.5
21 15.03 СЗ 2-3
{4}
н/о н/о +1.8 0 0 987.9 986.4
22 15.03 З 2-3
{3}
н/о н/о +1.4 -0 -0 988.7 987.2
23 15.03 З 2-2
{2}
н/о н/о +1.5 -0 -0 989.1 987.6
00 16.03 СЗ 2-2
{4}
н/о н/о +0.8 -1 -1 989.8 988.4 0.4
01 16.03 З 3-4
{4}
н/о н/о +0.8 -2 -2 990.4 989.0
02 16.03 З 4-5
{5}
н/о н/о +1.8 -2 -2 991.1 989.6
03 16.03 ЮЗ 3-4
{6}
н/о н/о +2.0 -1 -1 991.5 990.0
04 16.03 ЮЗ 4-5
{5}
н/о н/о +2.1 -1 -1 992.1 990.6
05 16.03 З 2-3
{6}
н/о н/о +1.5 -0 -0 992.5 991.0
06 16.03 ЮЗ 4-5
{8}
н/о н/о +2.6 -1 -1 993.3 991.8 +0.5 +2.8 0.4
07 16.03 ЮЗ 2-3
{4}
н/о н/о +2.3 +1 +1 993.7 992.3
08 16.03 З 6-6
{6}
н/о н/о +3.0 -1 -1 994.1 992.7
09 16.03 ЮЗ 7-7
{7}
н/о н/о +3.9 -0 -0 994.9 993.5
10 16.03 З 4-5
{7}
н/о н/о +4.5 +2 +2 995.0 993.5
11 16.03 ЮЗ 5-6
{7}
н/о н/о +4.8 +2 +2 994.8 993.3
12 16.03 З 7-9
{9}
н/о н/о +6.0 +2 +2 994.8 993.3
13 16.03 ЮЗ 7-8
{8}
н/о н/о +5.1 +1 +1 994.3 992.8
14 16.03 ЮЗ 7-9
{9}
н/о н/о +5.1 +1 +1 994.0 992.5
15 16.03 ЮЗ 8-9
{9}
н/о н/о +4.9 +1 +1 993.5 992.0
16 16.03 ЮЗ 6-7
{8}
н/о н/о +4.7 +1 +1 993.3 991.8
17 16.03 Ю 5-6
{7}
н/о н/о +4.7 +2 +2 992.8 991.3
18 16.03 Ю 5-6
{9}
н/о н/о +4.6 +1 +1 992.1 990.6 +2.1 +6.3
19 16.03 Ю 7-12
{14}
н/о н/о +3.9 -0 -0 991.5 990.1
20 16.03 ЮВ 8-10
{12}
н/о н/о +3.2 -2 -2 990.5 989.0
21 16.03 ЮВ 10-12
{13}
н/о н/о +3.2 -2 -2 989.0 987.5
22 16.03 ЮВ 12-15
{15}
н/о н/о +3.2 -3 -3 986.9 985.4
23 16.03 ЮВ 14-17
{17}
н/о н/о +3.1 -3 -3 985.0 983.5
00 17.03 ЮВ 14-18
{18}
н/о н/о +2.7 -4 -4 982.8 981.4 8
01 17.03 В 11-14
{17}
н/о н/о +3.3 -2 -2 980.0 978.5
02 17.03 В 10-12
{15}
н/о н/о +4.3 -1 -1 977.1 975.6
03 17.03 ЮЗ 7-9
{12}
н/о н/о +5.3 +1 +1 975.8 974.4
04 17.03 ЮЗ 14-19
{23}
н/о н/о +4.9 -1 -1 975.7 974.2
05 17.03 Ю 15-19
{19}
н/о н/о +5.1 -1 -1 974.4 973.0
06 17.03 ЮЗ 18-23
{24}
н/о н/о +4.9 -2 -2 973.6 972.1 +2.2 +5.9 15
07 17.03 ЮЗ 20-27
{27}
н/о н/о +4.8 -2 -2 972.1 970.7
08 17.03 ЮЗ 25-32
{32}
н/о н/о +4.9 -3 -3 971.2 969.7
09 17.03 ЮЗ 21-27
{31}
н/о н/о +3.7 -4 -4 970.6 969.2
10 17.03 ЮЗ 20-25
{27}
н/о н/о +4.5 -3 -3 971.0 969.6
11 17.03 ЮЗ 17-21
{24}
н/о н/о +5.1 -1 -1 971.6 970.1
12 17.03 ЮЗ 14-16
{32}
н/о н/о +5.3 -0 -0 972.3 970.8 1
13 17.03 ЮЗ 13-17
{19}
н/о н/о +5.6 +2.3 79 -1 -1 973.0 971.5
14 17.03 ЮЗ 15-18
{18}
н/о н/о +5.7 +2.2 78 -1 -1 973.5 972.1
15 17.03 ЮЗ 12-16
{19}
н/о н/о +5.6 +1.9 77 -1 -1 974.3 972.9
16 17.03 ЮЗ 10-13
{16}
н/о н/о +5.3 +2.3 81 -1 -1 975.0 973.6
17 17.03 З 11-14
{15}
н/о н/о +4.8 +1.3 78 -2 -2 975.9 974.5
18 17.03 З 9-12
{19}
н/о н/о +4.3 +1.2 80 -2 -2 977.1 975.6 +3.5 +6.1 0.9
19 17.03 З 9-12
{13}
н/о н/о +4.2 +0.4 76 -2 -2 977.5 976.1
20 17.03 З 7-9
{11}
н/о н/о +3.8 -0.2 75 -2 -2 978.3 976.8
21 17.03 З 8-11
{11}
н/о н/о +3.9 -0.3 74 -2 -2 978.9 977.5
22 17.03 З 8-10
{11}
н/о н/о +3.8 -0.9 71 -2 -2 980.0 978.6
23 17.03 СЗ 6-8
{9}
н/о н/о +3.9 -1.4 68 -1 -1 981.4 979.9
00 18.03 СЗ 7-9
{13}
н/о н/о +3.8 -1.9 66 -2 -2 982.6 981.2
01 18.03 СЗ 6-8
{10}
н/о н/о +3.3 -2.0 68 -2 -2 984.4 982.9
02 18.03 СЗ 4-5
{6}
н/о н/о +3.0 -2.3 68 -1 -1 986.0 984.5
03 18.03 С 5-7
{7}
н/о н/о +3.1 -1.4 72 -2 -2 987.7 986.3
04 18.03 СЗ 1-2
{5}
н/о н/о +2.5 -2.0 72 +1 +1 989.3 987.9
05 18.03 СЗ 2-3
{3}
н/о н/о +2.9 -2.0 70 0 0 991.0 989.5
06 18.03 С 7-11
{11}
н/о н/о +3.4 -2.9 63 -2 -2 992.5 991.0 +2.2 +4.6
07 18.03 З 3-5
{8}
н/о н/о +3.0 -2.3 68 -1 -1 994.4 992.9
08 18.03 СЗ 6-7
{7}
н/о н/о +2.9 -3.6 62 -2 -2 996.1 994.6
09 18.03 С 8-12
{12}
н/о н/о +5.5 -4.6 48 +1 +1 997.6 996.1
10 18.03 С 10-14
{14}
н/о н/о +6.9 -3.0 49 +2 +2 999.0 997.5
11 18.03 -11
{15}
н/о н/о +7.1 -3.1 48 1000.5 999.0
12 18.03 С 9-12
{15}
н/о н/о +7.4 -4.0 44 +3 +3 1001.6 1000.2
13 18.03 С 9-11
{14}
н/о н/о +8.3 -5.1 38 +4 +4 1002.6 1001.1
14 18.03 С 10-12
{16}
н/о н/о +8.2 -4.9 39 +4 +4 1003.5 1002.0
15 18.03 С 10-12
{14}
н/о н/о +8.7 -5.5 36 +4 +4 1004.8 1003.3
16 18.03 С 9-13
{13}
н/о н/о +8.5 -3.9 41 +4 +4 1006.2 1004.7
17 18.03 С 10-12
{12}
н/о н/о +8.0 -4.7 40 +3 +3 1007.4 1006.0
18 18.03 С 7-10
{16}
н/о н/о +6.8 -4.0 46 +3 +3 1009.3 1007.8 +2.7 +8.9
19 18.03 С 6-7
{12}
н/о н/о +5.5 -3.0 54 +1 +1 1010.9 1009.4
20 18.03 С 5-7
{7}
н/о н/о +4.8 -4.4 51 +1 +1 1012.2 1010.7
21 18.03 С 5-6
{8}
н/о н/о +3.8 -4.6 54 -1 -1 1013.3 1011.8
22 18.03 С 7-9
{9}
н/о н/о +3.4 -5.5 52 -2 -2 1014.7 1013.2
23 18.03 С 6-6
{9}
н/о н/о +2.7 -6.1 52 -3 -3 1015.8 1014.3
00 19.03 С 6-6
{12}
н/о н/о +2.2 -6.1 54 -3 -3 1016.8 1015.3
01 19.03 С 4-5
{5}
н/о н/о +1.7 -6.3 55 -3 -3 1017.4 1015.9
02 19.03 СЗ 4-6
{6}
н/о н/о +0.8 -5.6 62 -4 -4 1018.3 1016.8
03 19.03 СЗ 4-5
{6}
н/о н/о +0.5 -7.0 57 -4 -4 1019.0 1017.5
04 19.03 СЗ 6-7
{8}
н/о н/о +0.8 -6.3 59 -5 -5 1019.6 1018.1
05 19.03 СЗ 5-6
{7}
н/о н/о +0.3 -6.7 59 -5 -5 1020.1 1018.6
06 19.03 СЗ 5-6
{8}
н/о н/о +0.2 -6.6 60 -5 -5 1020.7 1019.2 0.0 +6.9
07 19.03 СЗ 4-5
{7}
н/о н/о +0.3 -6.5 60 -5 -5 1021.2 1019.6
08 19.03 СЗ 3-4
{5}
н/о н/о +1.7 -6.8 53 -2 -2 1021.6 1020.1
09 19.03 ЮЗ 2-3
{3}
н/о н/о +3.0 -4.9 56 +1 +1 1022.1 1020.6
10 19.03 Ю 5-6
{6}
н/о н/о +4.3 -1.3 67 -0 -0 1022.4 1020.9
11 19.03 Ю 8-10
{10}
н/о н/о +4.7 -1.1 66 -1 -1 1022.6 1021.1
12 19.03 ЮЗ 10-11
{11}
н/о н/о +4.9 -2.0 61 -1 -1 1022.6 1021.1
13 19.03 ЮЗ 9-11
{11}
н/о н/о +4.7 -0.1 71 -1 -1 1022.4 1020.9
14 19.03 ЮЗ 10-11
{12}
н/о н/о +4.6 +0.8 76 -2 -2 1022.1 1020.6
15 19.03 ЮЗ 8-9
{11}
н/о н/о +5.0 +2.4 83 -1 -1 1022.0 1020.5
16 19.03 ЮЗ 8-9
{10}
н/о н/о +5.2 +1 +1 1021.5 1020.0
17 19.03 ЮЗ 8-9
{9}
н/о н/о +5.3 +1 +1 1021.5 1020.0
18 19.03 ЮЗ 8-9
{12}
н/о н/о +5.5 +3.5 87 -0 -0 1021.8 1020.3 -0.2 +5.7
19 19.03 З 8-9
{10}
н/о н/о +5.5 +0.7 71 0 0 1022.6 1021.1
20 19.03 ЮЗ 8-10
{10}
н/о н/о +5.1 +1.1 75 -1 -1 1022.6 1021.1
21 19.03 ЮЗ 7-8
{10}
н/о н/о +4.8 +3.6 92 -1 -1 1022.4 1020.9
22 19.03 ЮЗ 9-10
{10}
н/о н/о +4.7 0 0 1021.6 1020.1
23 19.03 ЮЗ 10-11
{11}
н/о н/о +4.9 0 0 1020.7 1019.2
00 20.03 ЮЗ 9-11
{12}
н/о н/о +5.1 +1 +1 1020.2 1018.7
01 20.03 ЮЗ 12-15
{15}
н/о н/о +5.5 0 0 1018.8 1017.3
02 20.03 ЮЗ 11-14
{15}
н/о н/о +5.7 +1 +1 1018.2 1016.7
03 20.03 ЮЗ 10-12
{13}
н/о н/о +5.3 +1 +1 1017.6 1016.1
04 20.03 ЮЗ 8-9
{10}
н/о н/о +5.4 +1 +1 1017.0 1015.6
05 20.03 ЮЗ 6-7
{8}
н/о н/о +5.7 +2 +2 1017.0 1015.5
06 20.03 ЮЗ 7-8
{15}
н/о н/о +5.3 +1 +1 1017.6 1016.1 +4.6 +6.2
07 20.03 ЮЗ 8-9
{9}
н/о н/о +5.3 +1 +1 1018.2 1016.7
08 20.03 ЮЗ 6-8
{8}
н/о н/о +6.3 +3 +3 1019.4 1017.9
09 20.03 ЮЗ 7-8
{8}
н/о н/о +6.3 +3 +3 1020.2 1018.7
10 20.03 ЮЗ 9-11
{11}
н/о н/о +6.9 +5.5 91 +1 +1 1020.5 1019.0
11 20.03 З 10-15
{15}
н/о н/о +10.1 +1.0 53 +6 +6 1020.6 1019.2
12 20.03 З 10-15
{15}
н/о н/о +10.6 +0.6 50 +7 +7 1021.4 1019.9
13 20.03 З 10-14
{14}
н/о н/о +10.8 +0.3 48 +7 +7 1022.0 1020.6
14 20.03 СЗ 8-12
{15}
н/о н/о +10.6 +0.6 50 +7 +7 1022.5 1021.0
15 20.03 З 6-7
{12}
н/о н/о +10.5 +0.8 51 +8 +8 1022.8 1021.3
16 20.03 З 10-11
{11}
н/о н/о +10.4 +1.5 54 +6 +6 1022.9 1021.4
17 20.03 З 8-10
{13}
н/о н/о +9.8 +1.2 55 +6 +6 1023.8 1022.3
18 20.03 З 6-7
{15}
н/о н/о +8.5 +1.4 61 +5 +5 1024.4 1023.0 +5.1 +11.3
19 20.03 З 4-4
{7}
н/о н/о +7.7 +1.8 66 +5 +5 1024.4 1022.9
20 20.03 ЮЗ 7-8
{8}
н/о н/о +6.4 +3 +3 1024.7 1023.2
21 20.03 ЮЗ 6-7
{8}
н/о н/о +5.6 +2 +2 1024.2 1022.7
22 20.03 ЮЗ 7-8
{9}
н/о н/о +5.6 +2 +2 1023.8 1022.4
23 20.03 ЮЗ 10-11
{11}
н/о н/о +5.4 +1 +1 1023.1 1021.6
00 21.03 ЮЗ 7-9
{12}
н/о н/о +5.3 +1 +1 1022.2 1020.7
01 21.03 ЮЗ 9-10
{13}
н/о н/о +5.8 +1 +1 1021.5 1020.0
02 21.03 ЮЗ 13-14
{14}
н/о н/о +6.0 +1 +1 1020.1 1018.6
03 21.03 ЮЗ 10-11
{15}
н/о н/о +6.6 +2 +2 1019.4 1017.9
04 21.03 ЮЗ 12-14
{14}
н/о н/о +6.1 +1 +1 1019.0 1017.5
05 21.03 ЮЗ 11-12
{14}
н/о н/о +6.5 +2 +2 1018.9 1017.4
06 21.03 ЮЗ 11-13
{15}
н/о н/о +6.1 +1 +1 1018.5 1017.1 +5.1 +8.7
07 21.03 ЮЗ 12-14
{14}
н/о н/о +5.9 +1 +1 1019.1 1017.6
08 21.03 ЮЗ 10-12
{13}
н/о н/о +6.0 +1 +1 1019.0 1017.6
09 21.03 ЮЗ 7-11
{11}
н/о н/о +8.8 +6 +6 1019.6 1018.1
10 21.03 З 7-10
{13}
н/о н/о +11.8 +9.0 83 +9 +9 1019.8 1018.3
11 21.03 З 8-11
{11}
н/о н/о +11.6 +9.3 86 +8 +8 1020.1 1018.6
12 21.03 З 9-12
{14}
н/о н/о +13.6 +9.1 74 +11 +11 1020.4 1019.0
13 21.03 З 10-12
{13}
н/о н/о +13.1 +9.0 76 +10 +10 1020.8 1019.4
14 21.03 З 9-12
{13}
н/о н/о +13.6 +8.5 71 +11 +11 1020.9 1019.4
15 21.03 З 7-11
{11}
н/о н/о +14.0 +7.8 66 +12 +12 1021.5 1020.1
17 21.03 З 7-9
{15}
н/о н/о +11.6 +2.4 53 +9 +9 1023.8 1022.3
18 21.03 З 5-7
{15}
н/о н/о +10.5 +1.1 52 +8 +8 1024.7 1023.3 +5.8 +14.3
19 21.03 СЗ 4-6
{7}
н/о н/о +9.5 +0.7 54 +7 +7 1026.2 1024.7
20 21.03 З 5-7
{7}
н/о н/о +8.1 +1.1 61 +5 +5 1027.2 1025.7
21 21.03 З 4-5
{5}
н/о н/о +6.2 +1.9 74 +3 +3 1028.0 1026.5
22 21.03 СЗ 4-5
{6}
н/о н/о +5.4 +1.3 75 +2 +2 1028.7 1027.2
23 21.03 С 4-5
{6}
н/о н/о +5.3 +1.3 75 +1 +1 1029.7 1028.2
01 22.03 С 3-4
{5}
н/о н/о +3.9 +1.1 82 0 0 1030.6 1029.1
02 22.03 С 1-2
{4}
н/о н/о +3.5 +0.2 79 +2 +2 1030.3 1028.8
03 22.03 СЗ 4-4
{5}
н/о н/о +2.2 +0.7 90 -3 -3 1030.3 1028.7
04 22.03 С 3-3
{5}
н/о н/о +2.0 +0.7 91 -2 -2 1030.4 1028.8
05 22.03 СЗ 1-3
{3}
н/о н/о +1.6 0.0 89 -0 -0 1030.3 1028.7
06 22.03 С 3-4
{5}
н/о н/о +1.6 -0.6 85 -3 -3 1030.8 1029.3 +1.1 +10.4
08 22.03 С 3-4
{5}
н/о н/о +3.9 +1.0 81 0 0 1030.2 1028.7
09 22.03 В 4-6
{6}
н/о н/о +4.9 +1.9 81 +1 +1 1029.7 1028.2
10 22.03 В 3-3
{6}
н/о н/о +4.9 +3.3 89 +1 +1 1029.4 1027.9
11 22.03 В 1-2
{3}
н/о н/о +5.9 +4.7 92 +5 +5 1028.9 1027.4
12 22.03 ЮЗ 8-8
{10}
н/о н/о +5.1 +1 +1 1027.9 1026.4
13 22.03 ЮЗ 8-10
{10}
н/о н/о +5.2 +1 +1 1026.7 1025.2
14 22.03 ЮЗ 6-7
{8}
н/о н/о +5.3 +2 +2 1025.9 1024.4
15 22.03 Ю 9-11
{11}
н/о н/о +5.2 +1 +1 1024.5 1023.0

 

Местоположение метеостанции Маяк Torungen (Норвегия): широта 58.40 долгота 8.80 высота над уровнем моря 12 м.

В архиве по умолчанию представлена погода на Маяке Torungen за последнюю неделю. Архивные данные за месяц целиком и за предыдущие месяцы, начиная с января 2011 года, Вы можете получить, выбрав интересующий диапазон дат из раскрывающегося списка и нажав кнопку "Ввод!".


*Определитесь, кто Вы:
робот инопланетянин человек

Внимание! Время в таблицах - всемирное. Для получения местного времени необходимо прибавить поправку, которая равна 1 ч.

Смотрите также архив погоды в соседних городах и на ближайших метеорологических станциях:

Погода в Ландвике (Норвегия) (18 км)
Погода в Нелауге (Норвегия) (30 км)
Погода в Хюннеклейве (Норвегия) (31 км)
Погода на Маяке Lyngor (Норвегия) (33 км)
Погода в Кьевике (Норвегия) (48 км)
Погода в Гьерстаде (Норвегия) (54 км)
Погода на Маяке Oksoy (Норвегия) (57 км)
Погода в Бигландсфьорде (Норвегия) (66 км)
Погода в Йомфрулянде (Норвегия) (68 км)
Погода в Твейтсунде (Норвегия) (72 км)

Пояснения к столбцам:

Ветер - указаны скорость ветра в м/с - средняя за 10 мин, порывы в срок и между сроками (в фигурных скобках) и направление, откуда дует ветер: С - северный, СВ - северо-восточный, В - восточный, ЮВ - юго-восточный, Ю - южный, ЮЗ - юго-западный, З - западный, СЗ - северо-западный.
Видимость - горизонтальная дальность видимости в метрах или километрах. При видимости от 1 до 10 км при отсутствии осадков обычно наблюдается дымка, при ухудшении видимости до 1 км и менее - туман. В сухую погоду видимость может ухудшаться дымом, пылью или мглою.
Явления - указаны атмосферные явления, наблюдавшиеся в срок или в последний час перед сроком; фигурными скобками обозначены явления, наблюдавшиеся между сроками (за 1-3 часа до срока); квадратными скобками обозначены град или гололедные отложения с указанием их диаметра в мм.
Облачность - указаны через наклонную черту общая и нижняя облачность в баллах и высота нижней границы облаков в метрах; квадратными скобками обозначены формы облаков: Ci - перистые, Cs - перисто-слоистые, Cc - перисто-кучевые, Ac - высококучевые, As - высокослоистые, Sc - слоисто-кучевые, Ns - слоисто-дождевые, Cu - кучевые, Cb - кучево-дождевые. Подробнее классификацию облаков см. в Атласе облаков (PDF).
T - Температура воздуха - температура, измеренная на высоте 2 м над землей.
Td - Температура точки росы - температура, при понижении до которой содержащийся в воздухе водяной пар достигнет насыщения.
f - Относительная влажность воздуха - влажноcть воздуха, измеренная на высоте 2 м над землей.
Te - Эффективная температура - температура, которую ощущает одетый по сезону человек в тени. Характеристика душности погоды. При расчете учитывается влияние влажности воздуха и скорости ветра на теплоощущения человека.
Tes - Эффективная температура на солнце - температура, которую ощущает человек, с поправкой на солнечный нагрев. Характеристика знойности погоды. Зависит от высоты солнца над горизонтом, облачности и скорости ветра. Ночью, в пасмурную погоду, а также при ветре 12 м/с и более поправка равна нулю.
P - Атмосферное давление - приведенное к уровню моря атмосферное давление.
Po - Атмосферное давление - измеренное на уровне метеостанции атмосферное давление.
Tmin - Минимальная температура - минимум температуры воздуха на высоте 2 м над землей.
Tmax - Максимальная температура - максимум температуры воздуха на высоте 2 м над землей.
R - Количество осадков - Количество выпавших осадков за период времени, мм. При наведении курсора мыши на число - период времени, за который выпало указанное количество осадков.
R24 - Количество осадков - Количество выпавших осадков за 24 часа, мм.
S - Снежный покров - Высота снежного покрова, см. При наведении курсора мыши на число - состояние снежного покрова и степень покрытия местности в баллах.